Regional Weather Roundup
Issued by NWS Albany, NY

Home | Current Version | Previous Version | Text Only | Print | Product List | Glossary On
Versions: 1 2 3 4 5 6 7 8 9 10 11 12 13 14 15 16 17 18 19 20 21 22 23 24 25 26 27
000
ASUS41 KALY 230110
RWRALY

NEW YORK STATE HOURLY WEATHER ROUNDUP
NATIONAL WEATHER SERVICE ALBANY NY
900 PM EDT TUE AUG 22 2017

NOTE: "FAIR" INDICATES FEW OR NO CLOUDS BELOW 12,000 FEET WITH NO
SIGNIFICANT WEATHER AND/OR NO OBSTRUCTIONS TO VISIBILITY.

NYZ032-033-038>043-046>054-057>066-NYZ062>081-082-084-230200-
EAST


CITY           SKY/WX    TMP DP  RH WIND       PRES   REMARKS
ALBANY         LGT RAIN  71  66  84 W10G18    29.72F
GLENS FALLS    LGT RAIN  71  67  87 S6        29.68S
POUGHKEEPSIE   CLOUDY    84  68  58 SW9       29.71F THUNDER
NEWBURGH       MOCLDY    84  72  65 SW9       29.76F
MONTGOMERY     CLOUDY    82  70  66 S9        29.72F
WHITE PLAINS   PTCLDY    80  73  79 S12       29.77F
ISLIP          MOCLDY    78  74  87 SW20G25   29.80F
NEW YORK CITY  MOCLDY    83  75  77 S13G18    29.76F HX  90
CENTRAL PARK   CLEAR     83  72  69 VRB5      29.79F
$$

NYZ005>009-017-018-044>046-055-056-230200-
CENTRAL


CITY           SKY/WX    TMP DP  RH WIND       PRES   REMARKS
FULTON         CLOUDY    70  67  90 S9        29.69S
SYRACUSE       LGT RAIN  71  67  87 SW14      29.68F
ROME           CLOUDY    69  69 100 CALM      29.71F
ELMIRA         CLOUDY    69  57  65 W3        29.75F
BINGHAMTON     CLOUDY    66  66 100 SW6       29.78F
MONTICELLO     LGT RAIN  73  71  93 SW7       29.81S
$$

NYZ026>034-041>043-087-230200-
NORTH


CITY           SKY/WX    TMP DP  RH WIND       PRES   REMARKS
WATERTOWN      CLOUDY    71  70  96 SW9       29.64S
FORT DRUM      NOT AVBL
OGDENSBURG     FAIR      69  67  92 SW9       29.61R
MASSENA        CLOUDY    69  66  90 SW13      29.60R
SARANAC LAKE   CLOUDY    63  63 100 SW8       29.69F
PLATTSBURGH    CLOUDY    72  66  81 SW5       29.62R
$$

NYZ001>004-010>016-019>021-085-230200-
WEST


CITY           SKY/WX    TMP DP  RH WIND       PRES   REMARKS
NIAGARA FALLS  MOCLDY    70  65  84 NW12      29.74R
BUFFALO        MOCLDY    68  65  90 W9        29.75R
DUNKIRK        CLOUDY    68  67  96 SW10      29.77R
JAMESTOWN      CLOUDY    66  63  88 W12       29.82S
WELLSVILLE     MOCLDY    68  64  87 W12G20    29.82F
ROCHESTER      TSTM      68  66  93 SW8       29.72S
PENN YAN       CLOUDY    69  65  86 SW8       29.74F
$$

             KEY
       WCI = WIND CHILL INDEX
       VSB = VISIBILITY
       HX  = HEAT INDEX
$$




USA.gov is the U.S. government's official web portal to all federal, state and local government web resources and services.